#datetime,building,power
2022-10-19T00:01:00,pth,2.40
2022-10-19T00:03:00,pth,2.40
2022-10-19T00:05:00,pth,2.40
2022-10-19T00:07:00,pth,2.40
2022-10-19T00:09:00,pth,2.40
2022-10-19T00:10:00,pth,1.20
2022-10-19T00:12:00,pth,3.60
2022-10-19T00:14:00,pth,2.40
2022-10-19T00:15:00,pth,2.40
2022-10-19T00:17:00,pth,2.40
2022-10-19T00:19:00,pth,2.40
2022-10-19T00:20:00,pth,1.20
2022-10-19T00:22:00,pth,3.60
2022-10-19T00:23:00,pth,1.20
2022-10-19T00:25:00,pth,2.40
2022-10-19T00:27:00,pth,2.40
2022-10-19T00:29:00,pth,2.40
2022-10-19T00:31:00,pth,2.40
2022-10-19T00:32:00,pth,1.20
2022-10-19T00:34:00,pth,1.20
2022-10-19T00:36:00,pth,2.40
2022-10-19T00:37:00,pth,1.20
2022-10-19T00:40:00,pth,2.40
2022-10-19T00:41:00,pth,1.20
2022-10-19T00:43:00,pth,2.40
2022-10-19T00:45:00,pth,1.20
2022-10-19T00:47:00,pth,2.40
2022-10-19T00:49:00,pth,3.60
2022-10-19T00:51:00,pth,2.40
2022-10-19T00:52:00,pth,1.20
2022-10-19T00:54:00,pth,2.40
2022-10-19T00:55:00,pth,1.20
2022-10-19T00:57:00,pth,2.40
2022-10-19T00:59:00,pth,1.20
2022-10-19T01:01:00,pth,2.40
2022-10-19T01:03:00,pth,3.60
2022-10-19T01:05:00,pth,2.40
2022-10-19T01:07:00,pth,2.40
2022-10-19T01:08:00,pth,1.20
2022-10-19T01:10:00,pth,3.60
2022-10-19T01:12:00,pth,2.40
2022-10-19T01:14:00,pth,2.40
2022-10-19T01:16:00,pth,2.40
2022-10-19T01:18:00,pth,2.40
2022-10-19T01:20:00,pth,2.40
2022-10-19T01:21:00,pth,1.20
2022-10-19T01:23:00,pth,2.40
2022-10-19T01:25:00,pth,2.40
2022-10-19T01:27:00,pth,2.40
2022-10-19T01:29:00,pth,1.20
2022-10-19T01:30:00,pth,1.20
2022-10-19T01:32:00,pth,2.40
2022-10-19T01:33:00,pth,2.40
2022-10-19T01:34:00,pth,1.20
2022-10-19T01:35:00,pth,3.60
2022-10-19T01:37:00,pth,2.40
2022-10-19T01:39:00,pth,2.40
2022-10-19T01:41:00,pth,2.40
2022-10-19T01:42:00,pth,1.20
2022-10-19T01:44:00,pth,3.60
2022-10-19T01:46:00,pth,2.40
2022-10-19T01:47:00,pth,1.20
2022-10-19T01:49:00,pth,2.40
2022-10-19T01:51:00,pth,2.40
2022-10-19T01:53:00,pth,2.40
2022-10-19T01:55:00,pth,2.40
2022-10-19T01:57:00,pth,2.40
2022-10-19T01:59:00,pth,2.40
2022-10-19T02:01:00,pth,2.40
2022-10-19T02:03:00,pth,2.40
2022-10-19T02:04:00,pth,1.20
2022-10-19T02:06:00,pth,2.40
2022-10-19T02:07:00,pth,1.20
2022-10-19T02:09:00,pth,1.20
2022-10-19T02:11:00,pth,2.40
2022-10-19T02:13:00,pth,2.40
2022-10-19T02:15:00,pth,3.60
2022-10-19T02:16:00,pth,1.20
2022-10-19T02:18:00,pth,2.40
2022-10-19T02:19:00,pth,1.20
2022-10-19T02:21:00,pth,2.40
2022-10-19T02:23:00,pth,2.40
2022-10-19T02:25:00,pth,2.40
2022-10-19T02:27:00,pth,2.40
2022-10-19T02:29:00,pth,2.40
2022-10-19T02:31:00,pth,2.40
2022-10-19T02:33:00,pth,2.40
2022-10-19T02:34:00,pth,1.20
2022-10-19T02:36:00,pth,2.40
2022-10-19T02:38:00,pth,1.20
2022-10-19T02:40:00,pth,2.40
2022-10-19T02:42:00,pth,2.40
2022-10-19T02:44:00,pth,2.40
2022-10-19T02:45:00,pth,1.20
2022-10-19T02:47:00,pth,2.40
2022-10-19T02:48:00,pth,1.20
2022-10-19T02:50:00,pth,1.20
2022-10-19T02:52:00,pth,2.40
2022-10-19T02:53:00,pth,1.20
2022-10-19T02:55:00,pth,2.40
2022-10-19T02:57:00,pth,1.20
2022-10-19T02:59:00,pth,2.40
2022-10-19T03:01:00,pth,2.40
2022-10-19T03:03:00,pth,2.40
2022-10-19T03:05:00,pth,2.40
2022-10-19T03:07:00,pth,2.40
2022-10-19T03:09:00,pth,1.20
2022-10-19T03:10:00,pth,1.20
2022-10-19T03:11:00,pth,1.20
2022-10-19T03:13:00,pth,2.40
2022-10-19T03:14:00,pth,1.20
2022-10-19T03:16:00,pth,2.40
2022-10-19T03:17:00,pth,1.20
2022-10-19T03:19:00,pth,2.40
2022-10-19T03:21:00,pth,2.40
2022-10-19T03:23:00,pth,1.20
2022-10-19T03:24:00,pth,1.20
2022-10-19T03:26:00,pth,2.40
2022-10-19T03:28:00,pth,2.40
2022-10-19T03:29:00,pth,1.20
2022-10-19T03:31:00,pth,2.40
2022-10-19T03:32:00,pth,1.20
2022-10-19T03:33:00,pth,1.20
2022-10-19T03:35:00,pth,2.40
2022-10-19T03:36:00,pth,1.20
2022-10-19T03:38:00,pth,2.40
2022-10-19T03:40:00,pth,2.40
2022-10-19T03:42:00,pth,2.40
2022-10-19T03:44:00,pth,2.40
2022-10-19T03:46:00,pth,1.20
2022-10-19T03:48:00,pth,2.40
2022-10-19T03:50:00,pth,2.40
2022-10-19T03:52:00,pth,2.40
2022-10-19T03:54:00,pth,2.40
2022-10-19T03:56:00,pth,2.40
2022-10-19T03:58:00,pth,2.40
2022-10-19T04:00:00,pth,2.40
2022-10-19T04:02:00,pth,1.20
2022-10-19T04:03:00,pth,1.20
2022-10-19T04:05:00,pth,2.40
2022-10-19T04:07:00,pth,1.20
2022-10-19T04:09:00,pth,2.40
2022-10-19T04:10:00,pth,1.20
2022-10-19T04:12:00,pth,2.40
2022-10-19T04:13:00,pth,1.20
2022-10-19T04:15:00,pth,1.20
2022-10-19T04:17:00,pth,2.40
2022-10-19T04:19:00,pth,1.20
2022-10-19T04:20:00,pth,1.20
2022-10-19T04:22:00,pth,2.40
2022-10-19T04:24:00,pth,1.20
2022-10-19T04:26:00,pth,2.40
2022-10-19T04:28:00,pth,2.40
2022-10-19T04:30:00,pth,2.40
2022-10-19T04:32:00,pth,2.40
2022-10-19T04:34:00,pth,2.40
2022-10-19T04:35:00,pth,1.20
2022-10-19T04:37:00,pth,1.20
2022-10-19T04:39:00,pth,2.40
2022-10-19T04:41:00,pth,2.40
2022-10-19T04:43:00,pth,2.40
2022-10-19T04:45:00,pth,2.40
2022-10-19T04:47:00,pth,1.20
2022-10-19T04:49:00,pth,2.40
2022-10-19T04:50:00,pth,1.20
2022-10-19T04:52:00,pth,1.20
2022-10-19T04:54:00,pth,2.40
2022-10-19T04:55:00,pth,1.20
2022-10-19T04:57:00,pth,1.20
2022-10-19T04:58:00,pth,1.20
2022-10-19T05:00:00,pth,2.40
2022-10-19T05:01:00,pth,1.20
2022-10-19T05:03:00,pth,2.40
2022-10-19T05:04:00,pth,1.20
2022-10-19T05:06:00,pth,1.20
2022-10-19T05:08:00,pth,2.40
2022-10-19T05:10:00,pth,2.40
2022-10-19T05:12:00,pth,2.40
2022-10-19T05:14:00,pth,1.20
2022-10-19T05:16:00,pth,2.40
2022-10-19T05:18:00,pth,2.40
2022-10-19T05:20:00,pth,2.40
2022-10-19T05:22:00,pth,2.40
2022-10-19T05:23:00,pth,1.20
2022-10-19T05:25:00,pth,2.40
2022-10-19T05:27:00,pth,2.40
2022-10-19T05:29:00,pth,2.40
2022-10-19T05:30:00,pth,1.20
2022-10-19T05:32:00,pth,3.60
2022-10-19T05:34:00,pth,2.40
2022-10-19T05:35:00,pth,1.20
2022-10-19T05:37:00,pth,2.40
2022-10-19T05:39:00,pth,1.20
2022-10-19T05:41:00,pth,2.40
2022-10-19T05:43:00,pth,2.40
2022-10-19T05:44:00,pth,1.20
2022-10-19T05:46:00,pth,2.40
2022-10-19T05:49:00,pth,2.40
2022-10-19T05:51:00,pth,2.40
2022-10-19T05:53:00,pth,2.40
2022-10-19T05:54:00,pth,1.20
2022-10-19T05:56:00,pth,2.40
2022-10-19T05:58:00,pth,1.20
2022-10-19T05:59:00,pth,1.20
2022-10-19T06:00:00,pth,1.20
2022-10-19T06:02:00,pth,2.40
2022-10-19T06:05:00,pth,2.40
2022-10-19T06:06:00,pth,1.20
2022-10-19T06:08:00,pth,2.40
2022-10-19T06:10:00,pth,2.40
2022-10-19T06:13:00,pth,2.40
2022-10-19T06:14:00,pth,1.20
2022-10-19T06:15:00,pth,1.20
2022-10-19T06:17:00,pth,2.40
2022-10-19T06:18:00,pth,1.20
2022-10-19T06:20:00,pth,1.20
2022-10-19T06:22:00,pth,3.60
2022-10-19T06:24:00,pth,3.60
2022-10-19T06:26:00,pth,3.60
2022-10-19T06:28:00,pth,3.60
2022-10-19T06:30:00,pth,3.60
2022-10-19T06:32:00,pth,3.60
2022-10-19T06:34:00,pth,3.60
2022-10-19T06:36:00,pth,3.60
2022-10-19T06:38:00,pth,3.60
2022-10-19T06:40:00,pth,3.60
2022-10-19T06:42:00,pth,3.60
2022-10-19T06:44:00,pth,3.60
2022-10-19T06:46:00,pth,3.60
2022-10-19T06:48:00,pth,2.40
2022-10-19T06:50:00,pth,3.60
2022-10-19T06:52:00,pth,3.60
2022-10-19T06:54:00,pth,2.40
2022-10-19T06:55:00,pth,2.40
2022-10-19T06:57:00,pth,2.40
2022-10-19T06:58:00,pth,2.40
2022-10-19T07:00:00,pth,3.60
2022-10-19T07:02:00,pth,3.60
2022-10-19T07:03:00,pth,1.20
2022-10-19T07:04:00,pth,1.20
2022-10-19T07:06:00,pth,3.60
2022-10-19T07:08:00,pth,3.60
2022-10-19T07:10:00,pth,3.60
2022-10-19T07:12:00,pth,3.60
2022-10-19T07:14:00,pth,3.60
2022-10-19T07:16:00,pth,4.80
2022-10-19T07:18:00,pth,3.60
2022-10-19T07:19:00,pth,2.40
2022-10-19T07:21:00,pth,3.60
2022-10-19T07:23:00,pth,3.60
2022-10-19T07:25:00,pth,4.80
2022-10-19T07:27:00,pth,3.60
2022-10-19T07:29:00,pth,3.60
2022-10-19T07:31:00,pth,3.60
2022-10-19T07:33:00,pth,4.80
2022-10-19T07:35:00,pth,3.60
2022-10-19T07:36:00,pth,2.40
2022-10-19T07:38:00,pth,2.40
2022-10-19T07:40:00,pth,4.80
2022-10-19T07:42:00,pth,3.60
2022-10-19T07:44:00,pth,3.60
2022-10-19T07:46:00,pth,3.60
2022-10-19T07:48:00,pth,3.60
2022-10-19T07:49:00,pth,1.20
2022-10-19T07:51:00,pth,3.60
2022-10-19T07:52:00,pth,2.40
2022-10-19T07:54:00,pth,3.60
2022-10-19T07:56:00,pth,3.60
2022-10-19T07:58:00,pth,3.60
2022-10-19T08:00:00,pth,3.60
2022-10-19T08:02:00,pth,3.60
2022-10-19T08:03:00,pth,2.40
2022-10-19T08:04:00,pth,2.40
2022-10-19T08:06:00,pth,3.60
2022-10-19T08:07:00,pth,1.20
2022-10-19T08:09:00,pth,3.60
2022-10-19T08:11:00,pth,3.60
2022-10-19T08:12:00,pth,1.20
2022-10-19T08:13:00,pth,2.40
2022-10-19T08:15:00,pth,2.40
2022-10-19T08:17:00,pth,3.60
2022-10-19T08:19:00,pth,2.40
2022-10-19T08:21:00,pth,3.60
2022-10-19T08:23:00,pth,2.40
2022-10-19T08:25:00,pth,2.40
2022-10-19T08:27:00,pth,3.60
2022-10-19T08:29:00,pth,2.40
2022-10-19T08:31:00,pth,2.40
2022-10-19T08:33:00,pth,3.60
2022-10-19T08:35:00,pth,2.40
2022-10-19T08:37:00,pth,3.60
2022-10-19T08:39:00,pth,2.40
2022-10-19T08:41:00,pth,2.40
2022-10-19T08:43:00,pth,3.60
2022-10-19T08:45:00,pth,3.60
2022-10-19T08:47:00,pth,3.60
2022-10-19T08:48:00,pth,1.20
2022-10-19T08:50:00,pth,2.40
2022-10-19T08:52:00,pth,3.60
2022-10-19T08:54:00,pth,3.60
2022-10-19T08:56:00,pth,2.40
2022-10-19T08:58:00,pth,3.60
2022-10-19T09:00:00,pth,2.40
2022-10-19T09:02:00,pth,3.60
2022-10-19T09:03:00,pth,1.20
2022-10-19T09:05:00,pth,3.60
2022-10-19T09:06:00,pth,1.20
2022-10-19T09:08:00,pth,3.60
2022-10-19T09:10:00,pth,2.40
2022-10-19T09:11:00,pth,1.20
2022-10-19T09:13:00,pth,3.60
2022-10-19T09:14:00,pth,1.20
2022-10-19T09:15:00,pth,1.20
2022-10-19T09:17:00,pth,2.40
2022-10-19T09:18:00,pth,1.20
2022-10-19T09:20:00,pth,2.40
2022-10-19T09:21:00,pth,1.20
2022-10-19T09:23:00,pth,3.60
2022-10-19T09:24:00,pth,1.20
2022-10-19T09:26:00,pth,2.40
2022-10-19T09:28:00,pth,3.60
2022-10-19T09:29:00,pth,1.20
2022-10-19T09:30:00,pth,1.20
2022-10-19T09:32:00,pth,3.60
2022-10-19T09:34:00,pth,2.40
2022-10-19T09:36:00,pth,3.60
2022-10-19T09:38:00,pth,2.40
2022-10-19T09:39:00,pth,1.20
2022-10-19T09:41:00,pth,3.60
2022-10-19T09:43:00,pth,2.40
2022-10-19T09:45:00,pth,3.60
2022-10-19T09:47:00,pth,2.40
2022-10-19T09:48:00,pth,2.40
2022-10-19T09:50:00,pth,2.40
2022-10-19T09:52:00,pth,3.60
2022-10-19T09:53:00,pth,1.20
2022-10-19T09:54:00,pth,1.20
2022-10-19T09:56:00,pth,3.60
2022-10-19T09:58:00,pth,2.40
2022-10-19T10:00:00,pth,3.60
2022-10-19T10:02:00,pth,2.40
2022-10-19T10:04:00,pth,2.40
2022-10-19T10:05:00,pth,1.20
2022-10-19T10:07:00,pth,3.60
2022-10-19T10:09:00,pth,1.20
2022-10-19T10:10:00,pth,1.20
2022-10-19T10:11:00,pth,1.20
2022-10-19T10:13:00,pth,1.20
2022-10-19T10:15:00,pth,2.40
2022-10-19T10:17:00,pth,2.40
2022-10-19T10:19:00,pth,3.60
2022-10-19T10:21:00,pth,6.00
2022-10-19T10:23:00,pth,6.00
2022-10-19T10:25:00,pth,6.00
2022-10-19T10:27:00,pth,2.40
2022-10-19T10:29:00,pth,1.20
2022-10-19T10:31:00,pth,2.40
2022-10-19T10:33:00,pth,1.20
2022-10-19T10:34:00,pth,1.20
2022-10-19T10:36:00,pth,1.20
2022-10-19T10:37:00,pth,1.20
2022-10-19T10:39:00,pth,1.20
2022-10-19T10:41:00,pth,2.40
2022-10-19T10:43:00,pth,1.20
2022-10-19T10:46:00,pth,2.40
2022-10-19T10:48:00,pth,1.20
2022-10-19T10:50:00,pth,1.20
2022-10-19T10:52:00,pth,1.20
2022-10-19T10:54:00,pth,2.40
2022-10-19T10:56:00,pth,1.20
2022-10-19T10:58:00,pth,1.20
2022-10-19T11:01:00,pth,2.40
2022-10-19T11:03:00,pth,1.20
2022-10-19T11:05:00,pth,2.40
2022-10-19T11:07:00,pth,2.40
2022-10-19T11:09:00,pth,1.20
2022-10-19T11:10:00,pth,1.20
2022-10-19T11:13:00,pth,2.40
2022-10-19T11:15:00,pth,1.20
2022-10-19T11:17:00,pth,2.40
2022-10-19T11:18:00,pth,1.20
2022-10-19T11:20:00,pth,13.20
2022-10-19T11:21:00,pth,7.20
2022-10-19T11:23:00,pth,13.20
2022-10-19T11:25:00,pth,13.20
2022-10-19T11:27:00,pth,13.20
2022-10-19T11:29:00,pth,13.20
2022-10-19T11:30:00,pth,6.00
2022-10-19T11:32:00,pth,13.20
2022-10-19T11:34:00,pth,13.20
2022-10-19T11:35:00,pth,6.00
2022-10-19T11:37:00,pth,13.20
2022-10-19T11:39:00,pth,13.20
2022-10-19T11:40:00,pth,6.00
2022-10-19T11:42:00,pth,13.20
2022-10-19T11:43:00,pth,7.20
2022-10-19T11:45:00,pth,12.00
2022-10-19T11:47:00,pth,13.20
2022-10-19T11:49:00,pth,13.20
2022-10-19T11:51:00,pth,12.00
2022-10-19T11:53:00,pth,13.20
2022-10-19T11:54:00,pth,7.20
2022-10-19T11:56:00,pth,12.00
2022-10-19T11:58:00,pth,12.00
2022-10-19T12:00:00,pth,13.20
2022-10-19T12:02:00,pth,12.00
2022-10-19T12:04:00,pth,13.20
2022-10-19T12:06:00,pth,12.00
2022-10-19T12:07:00,pth,6.00
2022-10-19T12:09:00,pth,13.20
2022-10-19T12:11:00,pth,12.00
2022-10-19T12:12:00,pth,1.20
2022-10-19T12:13:00,pth,3.60
2022-10-19T12:15:00,pth,13.20
2022-10-19T12:16:00,pth,4.80
2022-10-19T12:17:00,pth,1.20
2022-10-19T12:19:00,pth,9.60
2022-10-19T12:20:00,pth,6.00
2022-10-19T12:22:00,pth,6.00
2022-10-19T12:23:00,pth,2.40
2022-10-19T12:25:00,pth,13.20
2022-10-19T12:27:00,pth,3.60
2022-10-19T12:29:00,pth,2.40
2022-10-19T12:32:00,pth,1.20
2022-10-19T12:34:00,pth,2.40
2022-10-19T12:36:00,pth,1.20
2022-10-19T12:38:00,pth,1.20
2022-10-19T12:40:00,pth,1.20
2022-10-19T12:42:00,pth,1.20
2022-10-19T12:43:00,pth,1.20
2022-10-19T12:45:00,pth,2.40
2022-10-19T12:48:00,pth,2.40
2022-10-19T12:50:00,pth,2.40
2022-10-19T12:52:00,pth,1.20
2022-10-19T12:54:00,pth,2.40
2022-10-19T12:56:00,pth,1.20
2022-10-19T12:58:00,pth,2.40
2022-10-19T13:00:00,pth,1.20
2022-10-19T13:02:00,pth,1.20
2022-10-19T13:03:00,pth,1.20
2022-10-19T13:05:00,pth,1.20
2022-10-19T13:07:00,pth,2.40
2022-10-19T13:08:00,pth,1.20
2022-10-19T13:10:00,pth,1.20
2022-10-19T13:11:00,pth,1.20
2022-10-19T13:13:00,pth,1.20
2022-10-19T13:15:00,pth,1.20
2022-10-19T13:17:00,pth,2.40
2022-10-19T13:19:00,pth,1.20
2022-10-19T13:21:00,pth,1.20
2022-10-19T13:23:00,pth,2.40
2022-10-19T13:24:00,pth,1.20
2022-10-19T13:26:00,pth,1.20
2022-10-19T13:29:00,pth,2.40
2022-10-19T13:31:00,pth,1.20
2022-10-19T13:33:00,pth,1.20
2022-10-19T13:36:00,pth,1.20
2022-10-19T13:37:00,pth,1.20
2022-10-19T13:39:00,pth,1.20
2022-10-19T13:40:00,pth,1.20
2022-10-19T13:42:00,pth,1.20
2022-10-19T13:44:00,pth,2.40
2022-10-19T13:46:00,pth,1.20
2022-10-19T13:48:00,pth,2.40
2022-10-19T13:50:00,pth,1.20
2022-10-19T13:52:00,pth,3.60
2022-10-19T13:54:00,pth,4.80
2022-10-19T13:56:00,pth,4.80
2022-10-19T13:58:00,pth,3.60
2022-10-19T14:00:00,pth,2.40
2022-10-19T14:01:00,pth,1.20
2022-10-19T14:03:00,pth,1.20
2022-10-19T14:05:00,pth,2.40
2022-10-19T14:06:00,pth,2.40
2022-10-19T14:08:00,pth,2.40
2022-10-19T14:11:00,pth,2.40
2022-10-19T14:13:00,pth,2.40
2022-10-19T14:15:00,pth,1.20
2022-10-19T14:16:00,pth,1.20
2022-10-19T14:18:00,pth,2.40
2022-10-19T14:20:00,pth,2.40
2022-10-19T14:21:00,pth,1.20
2022-10-19T14:22:00,pth,1.20
2022-10-19T14:24:00,pth,1.20
2022-10-19T14:26:00,pth,1.20
2022-10-19T14:28:00,pth,2.40
2022-10-19T14:31:00,pth,1.20
2022-10-19T14:33:00,pth,2.40
2022-10-19T14:35:00,pth,1.20
2022-10-19T14:37:00,pth,2.40
2022-10-19T14:39:00,pth,1.20
2022-10-19T14:40:00,pth,1.20
2022-10-19T14:42:00,pth,2.40
2022-10-19T14:44:00,pth,1.20
2022-10-19T14:46:00,pth,2.40
2022-10-19T14:48:00,pth,2.40
2022-10-19T14:50:00,pth,2.40
2022-10-19T14:52:00,pth,2.40
2022-10-19T14:54:00,pth,1.20
2022-10-19T14:56:00,pth,2.40
2022-10-19T14:58:00,pth,2.40
2022-10-19T15:00:00,pth,1.20
2022-10-19T15:02:00,pth,1.20
2022-10-19T15:04:00,pth,2.40
2022-10-19T15:05:00,pth,1.20
2022-10-19T15:07:00,pth,2.40
2022-10-19T15:08:00,pth,1.20
2022-10-19T15:10:00,pth,1.20
2022-10-19T15:12:00,pth,2.40
2022-10-19T15:14:00,pth,1.20
2022-10-19T15:16:00,pth,1.20
2022-10-19T15:18:00,pth,2.40
2022-10-19T15:20:00,pth,1.20
2022-10-19T15:22:00,pth,2.40
2022-10-19T15:24:00,pth,1.20
2022-10-19T15:26:00,pth,1.20
2022-10-19T15:27:00,pth,1.20
2022-10-19T15:29:00,pth,2.40
2022-10-19T15:32:00,pth,2.40
2022-10-19T15:33:00,pth,1.20
2022-10-19T15:35:00,pth,1.20
2022-10-19T15:36:00,pth,1.20
2022-10-19T15:39:00,pth,2.40
2022-10-19T15:41:00,pth,1.20
2022-10-19T15:44:00,pth,2.40
2022-10-19T15:47:00,pth,2.40
2022-10-19T15:49:00,pth,1.20
2022-10-19T15:52:00,pth,1.20
2022-10-19T15:54:00,pth,2.40
2022-10-19T15:56:00,pth,9.60
2022-10-19T15:57:00,pth,6.00
2022-10-19T15:59:00,pth,13.20
2022-10-19T16:01:00,pth,13.20
2022-10-19T16:03:00,pth,13.20
2022-10-19T16:05:00,pth,12.00
2022-10-19T16:07:00,pth,13.20
2022-10-19T16:09:00,pth,13.20
2022-10-19T16:11:00,pth,12.00
2022-10-19T16:13:00,pth,13.20
2022-10-19T16:15:00,pth,13.20
2022-10-19T16:17:00,pth,13.20
2022-10-19T16:19:00,pth,13.20
2022-10-19T16:20:00,pth,7.20
2022-10-19T16:22:00,pth,13.20
2022-10-19T16:24:00,pth,13.20
2022-10-19T16:26:00,pth,13.20
2022-10-19T16:28:00,pth,13.20
2022-10-19T16:30:00,pth,13.20
2022-10-19T16:32:00,pth,12.00
2022-10-19T16:33:00,pth,7.20
2022-10-19T16:35:00,pth,13.20
2022-10-19T16:36:00,pth,6.00
2022-10-19T16:38:00,pth,13.20
2022-10-19T16:40:00,pth,12.00
2022-10-19T16:42:00,pth,13.20
2022-10-19T16:44:00,pth,13.20
2022-10-19T16:46:00,pth,12.00
2022-10-19T16:48:00,pth,13.20
2022-10-19T16:50:00,pth,13.20
2022-10-19T16:52:00,pth,13.20
2022-10-19T16:54:00,pth,10.80
2022-10-19T16:56:00,pth,2.40
2022-10-19T16:58:00,pth,2.40
2022-10-19T17:00:00,pth,1.20
2022-10-19T17:01:00,pth,1.20
2022-10-19T17:03:00,pth,2.40
2022-10-19T17:04:00,pth,1.20
2022-10-19T17:06:00,pth,1.20
2022-10-19T17:07:00,pth,1.20
2022-10-19T17:08:00,pth,1.20
2022-10-19T17:10:00,pth,1.20
2022-10-19T17:12:00,pth,1.20
2022-10-19T17:13:00,pth,1.20
2022-10-19T17:15:00,pth,2.40
2022-10-19T17:17:00,pth,1.20
2022-10-19T17:19:00,pth,2.40
2022-10-19T17:20:00,pth,1.20
2022-10-19T17:22:00,pth,2.40
2022-10-19T17:24:00,pth,2.40
2022-10-19T17:26:00,pth,1.20
2022-10-19T17:27:00,pth,1.20
2022-10-19T17:29:00,pth,2.40
2022-10-19T17:31:00,pth,2.40
2022-10-19T17:32:00,pth,1.20
2022-10-19T17:34:00,pth,2.40
2022-10-19T17:36:00,pth,2.40
2022-10-19T17:38:00,pth,2.40
2022-10-19T17:39:00,pth,1.20
2022-10-19T17:41:00,pth,2.40
2022-10-19T17:42:00,pth,1.20
2022-10-19T17:44:00,pth,2.40
2022-10-19T17:46:00,pth,2.40
2022-10-19T17:47:00,pth,1.20
2022-10-19T17:49:00,pth,1.20
2022-10-19T17:50:00,pth,1.20
2022-10-19T17:52:00,pth,3.60
2022-10-19T17:53:00,pth,1.20
2022-10-19T17:54:00,pth,1.20
2022-10-19T17:56:00,pth,2.40
2022-10-19T17:58:00,pth,3.60
2022-10-19T18:00:00,pth,2.40
2022-10-19T18:02:00,pth,2.40
2022-10-19T18:03:00,pth,2.40
2022-10-19T18:05:00,pth,2.40
2022-10-19T18:07:00,pth,2.40
2022-10-19T18:09:00,pth,3.60
2022-10-19T18:10:00,pth,1.20
2022-10-19T18:12:00,pth,2.40
2022-10-19T18:14:00,pth,2.40
2022-10-19T18:16:00,pth,2.40
2022-10-19T18:18:00,pth,2.40
2022-10-19T18:20:00,pth,2.40
2022-10-19T18:22:00,pth,2.40
2022-10-19T18:24:00,pth,2.40
2022-10-19T18:25:00,pth,1.20
2022-10-19T18:27:00,pth,2.40
2022-10-19T18:29:00,pth,2.40
2022-10-19T18:30:00,pth,1.20
2022-10-19T18:32:00,pth,2.40
2022-10-19T18:34:00,pth,1.20
2022-10-19T18:36:00,pth,2.40
2022-10-19T18:38:00,pth,2.40
2022-10-19T18:39:00,pth,1.20
2022-10-19T18:41:00,pth,2.40
2022-10-19T18:43:00,pth,3.60
2022-10-19T18:45:00,pth,2.40
2022-10-19T18:47:00,pth,2.40
2022-10-19T18:48:00,pth,1.20
2022-10-19T18:50:00,pth,1.20
2022-10-19T18:52:00,pth,2.40
2022-10-19T18:54:00,pth,2.40
2022-10-19T18:56:00,pth,2.40
2022-10-19T18:58:00,pth,1.20
2022-10-19T18:59:00,pth,1.20
2022-10-19T19:01:00,pth,2.40
2022-10-19T19:03:00,pth,2.40
2022-10-19T19:04:00,pth,1.20
2022-10-19T19:06:00,pth,2.40
2022-10-19T19:07:00,pth,1.20
2022-10-19T19:09:00,pth,2.40
2022-10-19T19:11:00,pth,2.40
2022-10-19T19:13:00,pth,2.40
2022-10-19T19:15:00,pth,1.20
2022-10-19T19:16:00,pth,1.20
2022-10-19T19:18:00,pth,2.40
2022-10-19T19:20:00,pth,2.40
2022-10-19T19:21:00,pth,1.20
2022-10-19T19:23:00,pth,3.60
2022-10-19T19:25:00,pth,3.60
2022-10-19T19:27:00,pth,4.80
2022-10-19T19:28:00,pth,2.40
2022-10-19T19:30:00,pth,6.00
2022-10-19T19:31:00,pth,2.40
2022-10-19T19:33:00,pth,4.80
2022-10-19T19:35:00,pth,4.80
2022-10-19T19:37:00,pth,3.60
2022-10-19T19:39:00,pth,2.40
2022-10-19T19:40:00,pth,1.20
2022-10-19T19:42:00,pth,2.40
2022-10-19T19:44:00,pth,2.40
2022-10-19T19:45:00,pth,1.20
2022-10-19T19:47:00,pth,3.60
2022-10-19T19:48:00,pth,1.20
2022-10-19T19:50:00,pth,2.40
2022-10-19T19:52:00,pth,2.40
2022-10-19T19:53:00,pth,1.20
2022-10-19T19:55:00,pth,1.20
2022-10-19T19:57:00,pth,2.40
2022-10-19T19:59:00,pth,2.40
2022-10-19T20:01:00,pth,2.40
2022-10-19T20:03:00,pth,2.40
2022-10-19T20:05:00,pth,2.40
2022-10-19T20:07:00,pth,2.40
2022-10-19T20:09:00,pth,2.40
2022-10-19T20:10:00,pth,1.20
2022-10-19T20:11:00,pth,1.20
2022-10-19T20:13:00,pth,2.40
2022-10-19T20:15:00,pth,2.40
2022-10-19T20:17:00,pth,2.40
2022-10-19T20:19:00,pth,3.60
2022-10-19T20:20:00,pth,1.20
2022-10-19T20:21:00,pth,1.20
2022-10-19T20:23:00,pth,2.40
2022-10-19T20:25:00,pth,3.60
2022-10-19T20:27:00,pth,7.20
2022-10-19T20:29:00,pth,7.20
2022-10-19T20:31:00,pth,7.20
2022-10-19T20:32:00,pth,3.60
2022-10-19T20:33:00,pth,3.60
2022-10-19T20:34:00,pth,2.40
2022-10-19T20:36:00,pth,7.20
2022-10-19T20:38:00,pth,4.80
2022-10-19T20:40:00,pth,3.60
2022-10-19T20:42:00,pth,3.60
2022-10-19T20:44:00,pth,3.60
2022-10-19T20:46:00,pth,3.60
2022-10-19T20:48:00,pth,14.40
2022-10-19T20:50:00,pth,13.20
2022-10-19T20:52:00,pth,14.40
2022-10-19T20:54:00,pth,14.40
2022-10-19T20:56:00,pth,13.20
2022-10-19T20:57:00,pth,7.20
2022-10-19T20:59:00,pth,13.20
2022-10-19T21:01:00,pth,14.40
2022-10-19T21:03:00,pth,14.40
2022-10-19T21:04:00,pth,7.20
2022-10-19T21:06:00,pth,13.20
2022-10-19T21:08:00,pth,14.40
2022-10-19T21:09:00,pth,7.20
2022-10-19T21:11:00,pth,14.40
2022-10-19T21:12:00,pth,7.20
2022-10-19T21:14:00,pth,13.20
2022-10-19T21:16:00,pth,8.40
2022-10-19T21:18:00,pth,12.00
2022-10-19T21:20:00,pth,16.80
2022-10-19T21:21:00,pth,8.40
2022-10-19T21:23:00,pth,15.60
2022-10-19T21:25:00,pth,16.80
2022-10-19T21:27:00,pth,15.60
2022-10-19T21:29:00,pth,15.60
2022-10-19T21:30:00,pth,7.20
2022-10-19T21:32:00,pth,13.20
2022-10-19T21:33:00,pth,7.20
2022-10-19T21:35:00,pth,13.20
2022-10-19T21:36:00,pth,7.20
2022-10-19T21:38:00,pth,13.20
2022-10-19T21:39:00,pth,6.00
2022-10-19T21:41:00,pth,14.40
2022-10-19T21:43:00,pth,13.20
2022-10-19T21:45:00,pth,13.20
2022-10-19T21:47:00,pth,13.20
2022-10-19T21:49:00,pth,13.20
2022-10-19T21:50:00,pth,7.20
2022-10-19T21:52:00,pth,13.20
2022-10-19T21:54:00,pth,14.40
2022-10-19T21:56:00,pth,13.20
2022-10-19T21:58:00,pth,14.40
2022-10-19T22:00:00,pth,12.00
2022-10-19T22:02:00,pth,3.60
2022-10-19T22:04:00,pth,13.20
2022-10-19T22:05:00,pth,7.20
2022-10-19T22:07:00,pth,12.00
2022-10-19T22:09:00,pth,3.60
2022-10-19T22:10:00,pth,6.00
2022-10-19T22:11:00,pth,7.20
2022-10-19T22:13:00,pth,14.40
2022-10-19T22:15:00,pth,3.60
2022-10-19T22:17:00,pth,3.60
2022-10-19T22:18:00,pth,1.20
2022-10-19T22:20:00,pth,2.40
2022-10-19T22:22:00,pth,2.40
2022-10-19T22:24:00,pth,3.60
2022-10-19T22:25:00,pth,1.20
2022-10-19T22:27:00,pth,2.40
2022-10-19T22:28:00,pth,1.20
2022-10-19T22:30:00,pth,2.40
2022-10-19T22:31:00,pth,1.20
2022-10-19T22:32:00,pth,2.40
2022-10-19T22:34:00,pth,2.40
2022-10-19T22:36:00,pth,2.40
2022-10-19T22:38:00,pth,2.40
2022-10-19T22:39:00,pth,1.20
2022-10-19T22:41:00,pth,2.40
2022-10-19T22:43:00,pth,3.60
2022-10-19T22:45:00,pth,2.40
2022-10-19T22:46:00,pth,1.20
2022-10-19T22:48:00,pth,2.40
2022-10-19T22:49:00,pth,1.20
2022-10-19T22:51:00,pth,2.40
2022-10-19T22:52:00,pth,1.20
2022-10-19T22:54:00,pth,3.60
2022-10-19T22:56:00,pth,2.40
2022-10-19T22:58:00,pth,2.40
2022-10-19T23:00:00,pth,2.40
2022-10-19T23:01:00,pth,1.20
2022-10-19T23:02:00,pth,2.40
2022-10-19T23:04:00,pth,2.40
2022-10-19T23:06:00,pth,3.60
2022-10-19T23:08:00,pth,2.40
2022-10-19T23:10:00,pth,3.60
2022-10-19T23:11:00,pth,1.20
2022-10-19T23:13:00,pth,2.40
2022-10-19T23:15:00,pth,2.40
2022-10-19T23:16:00,pth,1.20
2022-10-19T23:18:00,pth,3.60
2022-10-19T23:20:00,pth,2.40
2022-10-19T23:22:00,pth,2.40
2022-10-19T23:24:00,pth,3.60
2022-10-19T23:26:00,pth,2.40
2022-10-19T23:27:00,pth,2.40
2022-10-19T23:29:00,pth,2.40
2022-10-19T23:31:00,pth,2.40
2022-10-19T23:32:00,pth,1.20
2022-10-19T23:34:00,pth,2.40
2022-10-19T23:36:00,pth,2.40
2022-10-19T23:38:00,pth,2.40
2022-10-19T23:40:00,pth,2.40
2022-10-19T23:42:00,pth,2.40
2022-10-19T23:43:00,pth,1.20
2022-10-19T23:45:00,pth,2.40
2022-10-19T23:47:00,pth,2.40
2022-10-19T23:48:00,pth,1.20
2022-10-19T23:50:00,pth,2.40
2022-10-19T23:52:00,pth,2.40
2022-10-19T23:54:00,pth,2.40
2022-10-19T23:55:00,pth,1.20
2022-10-19T23:57:00,pth,2.40
2022-10-19T23:59:00,pth,2.40
